METAR UND TAF INFORMATION
LEAM 171700Z 22006KT 190V250 9999 FEW020 16/13 Q1025

 FLUGHAFENKARTE

 RUNWAY INFORMATION
Runway 08 Runway length 10499 ft Runway width 148 ft
Runway elevation 26 ft Runway displaced threshold 492 ft Runway heading 73
Runway 26 Runway length 10499 ft Runway width 148 ft
Runway elevation 70 ft Runway displaced threshold 0 ft Runway heading 253

 AIRPORT FREQUENCIES
Type APP Name APP Frequency 118.35 MHZ
Type GND Name GND Frequency 121.7 MHZ
Type TWR Name TWR Frequency 118.35 MHZ

 AIRPORT NEAR NAVIGATION AIDS
Type NDB Name Almeria Frequency 284 KHZ
Type NDB Name Almeria Frequency 310 KHZ
Type VOR-DME Name Almeria Frequency 114100 KHZ